, AK

(GMT )
Northway

Weather History for PAOR - September, 2013

Change the Weather History Date:

Monday, September 16, 2013

  Actual Average Record
Temperature  
Mean Temperature 40 °F -  
Max Temperature 48 °F 54 °F 70 °F (2012)
Min Temperature 33 °F 31 °F 9 °F (1992)
Degree Days  
Heating Degree Days 24    
Moisture  
Dew Point 31 °F    
Average Humidity 71    
Maximum Humidity 96    
Minimum Humidity 44    
Precipitation  
Precipitation 0.19 in - - ()
Sea Level Pressure  
Sea Level Pressure 29.77 in    
Wind  
Wind Speed 3 mph (NW)    
Max Wind Speed 12 mph    
Max Gust Speed -    
Visibility 9 miles    
Events Rain    
Averages and records for this station are not official NWS values.
T = Trace of Precipitation, MM = Missing Value Source: NWS Daily Summary

Daily Weather History Graph

Daily Weather History Graph

Search for Another Location

Airport or City:

Trip Planner

Search our weather history database for the weather conditions in past years. The results will help you decide how hot, cold, wet, or windy it might be!

Date:

Astronomy

Sep. 16, 2013 Rise Set
Actual Time 6:56 AM AKDT 7:47 PM AKDT
Civil Twilight 6:09 AM AKDT 8:33 PM AKDT
Nautical Twilight 5:11 AM AKDT 9:30 PM AKDT
Astronomical Twilight 4:02 AM AKDT 10:38 PM AKDT
Moon 6:33 PM AKDT (9/16) 3:06 AM AKDT (9/16)
Length of Visible Light 14h 23m
Length of Day
12h 50m
Waxing Gibbous, 91% of the Moon is Illuminated
Sep 16
Waxing Gibbous
Sep 19
Full
Sep 26
Last Quarter
Oct 4
New
Oct 11
First Quarter

Hourly Weather History & Observations

Time (AKDT) Temp. Windchill Dew Point Humidity Pressure Visibility Wind Dir Wind Speed Gust Speed Precip Events Conditions
12:53 AM 39.9 °F - 37.0 °F 89% 29.93 in 10.0 mi Calm Calm - N/A   Mostly Cloudy
1:53 AM 41.0 °F - 33.1 °F 73% 29.92 in 10.0 mi Calm Calm - N/A   Overcast
2:53 AM 39.9 °F 37.8 °F 32.0 °F 73% 29.90 in 10.0 mi NW 3.5 mph - N/A   Overcast
3:53 AM 39.0 °F 36.8 °F 30.9 °F 73% 29.89 in 10.0 mi NW 3.5 mph - N/A   Overcast
4:53 AM 37.9 °F 35.5 °F 30.0 °F 73% 29.88 in 10.0 mi NW 3.5 mph - N/A   Mostly Cloudy
5:53 AM 37.0 °F 32.4 °F 28.9 °F 73% 29.86 in 10.0 mi NNW 5.8 mph - N/A   Mostly Cloudy
6:53 AM 34.0 °F 31.0 °F 27.0 °F 75% 29.85 in 10.0 mi WNW 3.5 mph - N/A   Clear
7:53 AM 33.1 °F - 28.0 °F 82% 29.85 in 10.0 mi Calm Calm - N/A   Clear
8:53 AM 35.1 °F 30.1 °F 28.0 °F 76% 29.83 in 10.0 mi NW 5.8 mph - N/A   Partly Cloudy
9:53 AM 39.9 °F 35.8 °F 28.9 °F 65% 29.82 in 10.0 mi NW 5.8 mph - N/A   Mostly Cloudy
10:53 AM 42.1 °F 37.7 °F 28.0 °F 58% 29.79 in 10.0 mi NNW 6.9 mph - N/A   Scattered Clouds
11:53 AM 45.0 °F 41.8 °F 28.0 °F 52% 29.77 in 10.0 mi WNW 5.8 mph - N/A   Scattered Clouds
12:53 PM 45.0 °F 41.8 °F 28.0 °F 52% 29.75 in 10.0 mi NNW 5.8 mph - N/A   Mostly Cloudy
1:53 PM 48.0 °F - 28.0 °F 46% 29.72 in 10.0 mi Variable 5.8 mph - N/A   Mostly Cloudy
2:53 PM 48.0 °F - 27.0 °F 44% 29.70 in 10.0 mi WNW 4.6 mph - N/A   Mostly Cloudy
3:53 PM 46.9 °F - 28.9 °F 50% 29.69 in 10.0 mi WSW 5.8 mph - N/A   Mostly Cloudy
4:53 PM 46.9 °F - 30.0 °F 52% 29.67 in 10.0 mi WSW 5.8 mph - N/A   Overcast
5:53 PM 46.0 °F 44.8 °F 30.0 °F 54% 29.67 in 10.0 mi WSW 3.5 mph - N/A   Overcast
6:53 PM 42.1 °F 35.7 °F 32.0 °F 67% 29.69 in 10.0 mi ESE 11.5 mph - N/A   Overcast
7:53 PM 37.9 °F 32.1 °F 35.1 °F 89% 29.71 in 8.0 mi ESE 8.1 mph - 0.00 in Rain Light Rain
8:53 PM 37.0 °F - 35.1 °F 93% 29.71 in 6.0 mi Calm Calm - 0.04 in Rain Light Rain
9:53 PM 37.0 °F - 35.1 °F 93% 29.69 in 5.0 mi Calm Calm - 0.07 in Rain Light Rain
10:39 PM 35.6 °F 31.7 °F 33.8 °F 93% 29.63 in 7.0 mi NW 4.6 mph - 0.04 in Rain Light Rain
10:53 PM 36.0 °F 33.3 °F 34.0 °F 93% 29.69 in 9.0 mi NNW 3.5 mph - 0.05 in Rain Light Rain
11:53 PM 35.1 °F 30.1 °F 34.0 °F 96% 29.68 in 8.0 mi Variable 5.8 mph - 0.03 in Rain Light Rain